McAlester, OK

3:15 AM CST on February 07, 2016 (GMT -0600)
McAlester Regional

Weather History for KMLC - October, 2012

Change the Weather History Date:

Friday, October 19, 2012

  Actual Average Record
Temperature  
Mean Temperature 58 °F -  
Max Temperature 72 °F 71 °F 91 °F (2005)
Min Temperature 42 °F 46 °F 27 °F (1989)
Degree Days  
Heating Degree Days 8    
Growing Degree Days 8 (Base 50)    
Moisture  
Dew Point 30 °F    
Average Humidity 40    
Maximum Humidity 79    
Minimum Humidity 19    
Precipitation  
Precipitation 0.00 in - - ()
Sea Level Pressure  
Sea Level Pressure 29.90 in    
Wind  
Wind Speed 6 mph (West)    
Max Wind Speed 18 mph    
Max Gust Speed 25 mph    
Visibility 10 miles    
Events      
Averages and records for this station are not official NWS values.
T = Trace of Precipitation, MM = Missing Value Source: NWS Daily Summary

Daily Weather History Graph

Daily Weather History Graph

Search for Another Location

Airport or City:

Trip Planner

Search our weather history database for the weather conditions in past years. The results will help you decide how hot, cold, wet, or windy it might be!

Date:

Astronomy

Oct. 19, 2012 Rise Set
Actual Time 7:32 AM CDT 6:42 PM CDT
Civil Twilight 7:07 AM CDT 7:08 PM CDT
Nautical Twilight 6:37 AM CDT 7:37 PM CDT
Astronomical Twilight 6:08 AM CDT 8:06 PM CDT
Moon 12:08 PM CDT (10/19) 10:29 PM CDT (10/19)
Length of Visible Light 12h 01m
Length of Day
11h 09m
Waxing Crescent, 24% of the Moon is Illuminated
Oct 19
Waxing Crescent
Oct 21
First Quarter
Oct 29
Full
Nov 6
Last Quarter
Nov 13
New

Hourly Weather History & Observations

Time (CDT) Temp. Dew Point Humidity Pressure Visibility Wind Dir Wind Speed Gust Speed Precip Events Conditions
12:53 AM 55.0 °F 30.9 °F 40% 29.90 in 10.0 mi WNW 4.6 mph - N/A   Mostly Cloudy
1:53 AM 57.0 °F 27.0 °F 32% 29.89 in 9.0 mi West 5.8 mph - N/A   Mostly Cloudy
2:53 AM 48.9 °F 33.1 °F 54% 29.89 in 10.0 mi SW 4.6 mph - N/A   Overcast
3:32 AM 48.2 °F 32.0 °F 54% 29.90 in 10.0 mi WSW 4.6 mph - N/A   Overcast
3:53 AM 51.1 °F 28.9 °F 43% 29.89 in 10.0 mi West 5.8 mph - N/A   Mostly Cloudy
4:53 AM 51.1 °F 28.0 °F 41% 29.89 in 10.0 mi West 4.6 mph - N/A   Mostly Cloudy
5:53 AM 50.0 °F 28.0 °F 43% 29.90 in 10.0 mi WSW 5.8 mph - N/A   Partly Cloudy
6:53 AM 48.9 °F 28.0 °F 44% 29.92 in 10.0 mi West 6.9 mph - N/A   Scattered Clouds
7:53 AM 48.0 °F 28.0 °F 46% 29.93 in 10.0 mi WSW 5.8 mph - N/A   Scattered Clouds
8:53 AM 54.0 °F 27.0 °F 35% 29.95 in 10.0 mi WNW 6.9 mph - N/A   Partly Cloudy
9:53 AM 59.0 °F 27.0 °F 29% 29.96 in 10.0 mi WNW 12.7 mph 20.7 mph N/A   Partly Cloudy
10:53 AM 62.1 °F 27.0 °F 26% 29.96 in 10.0 mi WNW 12.7 mph - N/A   Partly Cloudy
11:53 AM 64.0 °F 28.0 °F 26% 29.95 in 10.0 mi West 11.5 mph - N/A   Scattered Clouds
12:53 PM 66.9 °F 28.0 °F 23% 29.93 in 10.0 mi NW 18.4 mph 25.3 mph N/A   Scattered Clouds
1:53 PM 69.1 °F 28.0 °F 22% 29.90 in 10.0 mi West 17.3 mph 23.0 mph N/A   Partly Cloudy
2:53 PM 71.1 °F 28.0 °F 20% 29.89 in 10.0 mi NW 13.8 mph 24.2 mph N/A   Partly Cloudy
3:53 PM 71.6 °F 26.6 °F 19% 29.89 in 10.0 mi WNW 11.5 mph 21.9 mph N/A   Mostly Cloudy
4:53 PM 71.1 °F 26.1 °F 19% 29.86 in 10.0 mi West 13.8 mph 18.4 mph N/A   Partly Cloudy
5:53 PM 69.1 °F 27.0 °F 21% 29.86 in 10.0 mi Variable 5.8 mph - N/A   Partly Cloudy
6:53 PM 64.0 °F 27.0 °F 25% 29.86 in 10.0 mi Calm Calm - N/A   Clear
7:53 PM 51.1 °F 36.0 °F 56% 29.88 in 10.0 mi Calm Calm - N/A   Partly Cloudy
8:53 PM 46.9 °F 37.0 °F 68% 29.88 in 10.0 mi Calm Calm - N/A   Partly Cloudy
9:53 PM 45.0 °F 36.0 °F 71% 29.89 in 10.0 mi Calm Calm - N/A   Partly Cloudy
10:53 PM 44.1 °F 37.0 °F 76% 29.89 in 10.0 mi Calm Calm - N/A   Scattered Clouds
11:53 PM 42.1 °F 36.0 °F 79% 29.88 in 10.0 mi Calm Calm - N/A   Clear